Regional Weather Roundup
Issued by NWS Sioux Falls, SD

Home | Current Version | Previous Version | Graphics & Text | Print | Product List | Glossary Off
Versions: 1 2 3 4 5 6 7 8 9 10 11 12 13 14 15 16 17 18 19 20 21 22 23 24 25 26 27 28 29 30 31 32 33 34 35 36 37 38 39 40 41 42 43 44 45 46 47 48 49 50

000
ASUS43 KFSD 021402
RWRFSD

WEATHER ROUNDUP FOR SE SOUTH DAKOTA/SW MINNESOTA/NW IOWA
NATIONAL WEATHER SERVICE SIOUX FALLS SD
900 AM CDT TUE SEP 02 2014

NOTE: "FAIR" INDICATES FEW OR NO CLOUDS BELOW 12,000 FEET WITH NO
SIGNIFICANT WEATHER AND OR OBSTRUCTIONS TO VISIBILITY.


SDZ038>040-050-052>070-021500-
SOUTHEAST SOUTH DAKOTA

CITY           SKY/WX    TMP DP  RH WIND       PRES   REMARKS
CHAMBERLAIN    SUNNY     57  53  85 SW6       29.95S
HURON          SUNNY     59  55  87 S5        29.92S
MADISON        FAIR      59  59 100 NW6       29.93S
MITCHELL       SUNNY     59  55  87 S3        29.95R
SIOUX FALLS    SUNNY     62  57  83 NW6       29.95R
WINNER         FAIR      61  52  72 CALM      29.96S
YANKTON        SUNNY     61  55  82 SW7       29.96S
$$

MNZ071-072-080-081-089-090-097-098-021500-
SOUTHWEST MINNESOTA

CITY           SKY/WX    TMP DP  RH WIND       PRES   REMARKS
FAIRMONT       SUNNY     64  54  68 W8        29.93R
JACKSON        SUNNY     63  55  77 W7        29.94R
LUVERNE        SUNNY     61  55  82 W3        29.96R
MARSHALL       SUNNY     64  55  72 W5        29.91R
MONTEVIDEO     SUNNY     64  61  88 W6        29.91S
PIPESTONE      SUNNY     61  55  82 W3        29.93S
REDWOOD FALLS  SUNNY     64  56  75 NW6       29.91R
TRACY          MOSUNNY   64  57  79 W5        29.92S
WINDOM         SUNNY     63  55  77 W8        29.94R
WORTHINGTON    SUNNY     61  55  82 W7        29.96R
$$

IAZ001>003-012>014-020>022-031-032-NEZ013-014-SDZ071-021500-
NORTHWEST IOWA

CITY           SKY/WX    TMP DP  RH WIND       PRES   REMARKS
CHEROKEE       SUNNY     60  60 100 SW5       29.98R
DENISON        CLOUDY    57  57 100 S3        29.98R FOG
ESTHERVILLE    SUNNY     63  57  81 W6        29.93S
LE MARS        MOSUNNY   59  57  94 SW8       29.98R
ORANGE CITY    SUNNY     61  57  88 SW6       29.97R
SHELDON        SUNNY     61  59  94 SW5       29.96R
SIOUX CITY     SUNNY     62  58  86 SW3       29.98R
SPENCER        SUNNY     62  57  83 W7        29.96R
STORM LAKE     SUNNY     61  61 100 W7        29.97R
$$

ABBREVIATIONS USED IN REMARKS
   TC - TEMPERATURE IN CELSIUS
  WCI - WIND CHILL INDEX
   HX - HEAT INDEX
  VSB - VISIBILITY



USA.gov is the U.S. government's official web portal to all federal, state and local government web resources and services.